COSMOS 1275 DEB, 42221

Orbit data source: Space-Track

COSMOS 1275 DEB, 42221 is space debris in LEO originally from a launch on Thu, 04 Jun 1981 UTC launched from the Plesetsk Missile And Space Complex (PKMTR). Debris objects in space refer to the collection of defunct objects orbiting the Earth. Examples of debris include non-operational satellites, rocket bodies, and fragments generated from explosions, collisions, or faulty payload assembly.

Loading next visibility...
Identifier
42221, 1981-053UM
Orbit
LEO
Country
Flag of CISCIS
Related business
Manufacturer
Unknown
Mission
Spacecraft
Bus & Motor
Unknown
Mass
Unknown
Launch date (UTC)
1981-06-04 (45 years ago)
Launch vehicle
Unknown
Launch site
Plesetsk Missile And Space Complex (PKMTR)
Object type
Payload
Rocket body
Debris
Shape & HBR
Unknown shape, 0.1 m
Radar Cross Section
Small (<0.1 m²)

Expand to show TLE details & history
Last TLE update: 2 days ago

TLE from 2 days ago
0 COSMOS 1275 DEB
1 42221U 81053UM  26035.17025031  .00000849  00000-0  79047-3 0  9994
2 42221  82.8978 355.2521 0077450 246.2087 113.0937 13.79670571612874
Epoch: 2026-02-04T04:05Z
TLE epoch observation values (Epoch: 2026-02-04T04:05:09.626Z)
Latitude
-0.00008°
Longitude
159.62131°
Altitude
990.643 km
Speed
7.345 km/s
True Right ascension
23h 41m 00s
True Declination
0° 00' 00"
Sunlit
Object was in daylight at epoch
Visualization orbit readout
Latitude
Unknown
Longitude
Unknown
Altitude
Unknown
Speed
Unknown
Apparent Right ascension
Unknown
Apparent Declination
Unknown
Sunlit
N/A
Visualization observer readout
Local Sidereal Time
18:04:23
Azimuth
Unknown
Elevation
Unknown
Doppler factor
Unknown
Orbital elements
Apogee altitude
1,019.05 km
Perigee altitude
905.348 km
Semi-major axis
7,340.336 km
Eccentricity
0.00775
Inclination
82.8978°
RAAN
355.2521°
Arg. of periapsis
246.2087°
True anomaly
113.90697°
Mean anomaly
113.0937°
Eccentric anomaly
113.50065°
Mean motion
3.45119 °/min
Orbital period
104.31 mins
BSTAR
0.00079047
Loading maneuver chart data...
Computing Atmospheric mass density...
Loading historical data...
Loading historical data...
Loading historical data...
Loading historical data...
Loading historical data...
Loading historical data...
Loading historical data...

Documentation

Showing up to 5 results
|